Temperature
17 17 17 16 16 16 16 16 16 15 15 15 15 15 15 15 14 14 14 14 14 14 14 14 14 14 13 13 13 13 13 13 13 12 12 13 13 13 13 13 12 12 12
17 17 17 17 16 16 16 16 16 15 15 15 15 15 15 14 14 14 14 14 14 14 14 14 14 13 13 13 13 13 12 12 12 12 11 11 12 12 13 12 12 12 11
17 17 17 17 16 16 16 16 16 15 15 15 15 15 15 14 14 14 14 14 14 14 14 14 14 13 13 13 13 13 12 12 12 11 11 10 11 11 12 12 11 11 11
18 17 17 16 16 16 16 16 15 15 15 15 15 15 15 15 14 14 14 14 14 14 14 14 13 13 13 13 13 12 12 11 11 11 10 10 10 10 10 10 10 10 10
17 17 17 17 16 16 16 15 15 15 15 15 15 15 15 14 14 14 14 14 14 14 14 13 13 13 12 12 12 12 11 11 10 10 10 10 10 9 9 9 10 10 9
17 17 17 16 16 16 16 15 15 15 15 15 15 15 14 14 14 14 13 13 13 13 13 13 12 12 12 11 11 11 11 10 10 9 9 9 9 9 9 9 9 9 9
17 16 16 16 16 16 15 15 15 15 15 15 15 14 14 14 13 13 13 13 12 12 12 12 12 11 11 11 10 10 10 10 9 9 9 8 8 8 8 8 8 8 8
16 16 15 15 15 15 15 15 14 14 14 14 14 14 14 13 13 13 12 12 12 11 11 11 11 10 10 10 10 9 9 9 8 8 8 8 8 7 7 7 7 7 7
15 15 15 14 14 14 14 14 14 14 13 13 13 13 13 13 12 12 12 11 11 11 10 10 10 9 9 9 9 8 8 8 8 7 7 7 7 7 6 6 6 6 5
14 14 14 13 13 13 13 12 12 12 12 12 13 12 12 12 12 12 11 11 10 10 9 9 9 9 8 8 8 8 7 7 7 7 6 6 6 6 6 5 5 5 5
13 13 13 12 12 11 11 11 11 11 11 12 12 12 12 11 11 11 11 10 10 9 9 8 8 8 7 7 7 7 6 6 6 6 5 5 5 5 5 5 5 4 4
12 12 12 11 11 10 10 10 10 10 11 11 11 11 11 11 10 10 10 9 9 8 8 7 7 7 7 6 6 6 6 5 5 5 5 4 4 4 4 4 4 4 4
12 11 11 10 10 10 9 9 9 10 10 10 10 10 10 10 10 9 9 8 8 7 7 7 6 6 6 5 5 5 4 4 4 4 4 4 4 4 4 4 4 4 4
11 11 10 10 9 9 9 9 9 9 9 10 10 10 10 9 9 9 8 8 7 7 6 6 5 5 5 5 4 4 4 4 3 3 3 3 3 3 3 3 3 3 3
12 11 10 10 9 9 8 8 8 9 9 9 9 9 9 9 8 8 7 7 6 6 5 5 4 4 4 4 3 3 3 3 3 3 3 3 3 3 3 3 3 3 2
11 11 10 10 9 9 9 8 9 9 9 9 9 9 8 8 8 7 6 6 5 5 4 4 3 3 3 3 3 3 3 2 2 2 2 2 2 2 2 2 2 2 2
11 11 10 10 9 9 9 9 9 9 9 9 9 8 8 8 7 7 6 5 4 4 3 3 3 3 2 2 2 2 2 2 2 2 2 2 2 2 2 2 2 2 1
10 10 10 10 9 9 9 9 9 9 9 9 8 8 8 7 7 6 5 4 4 3 3 2 2 2 2 2 2 2 2 2 2 2 2 2 2 2 1 1 1 1 1
9 9 9 9 9 9 9 9 9 9 9 9 8 8 7 7 6 5 5 4 3 3 2 2 2 2 2 2 2 2 2 2 2 2 1 1 2 1 1 1 1 1 1
8 8 8 8 9 8 8 8 8 8 9 8 8 7 7 6 6 5 4 3 3 2 2 1 1 1 1 1 1 1 2 2 2 2 1 1 1 1 1 1 1 1 0
7 8 8 8 8 8 8 8 8 8 8 7 7 7 6 6 5 4 3 3 2 2 1 1 1 1 1 1 1 1 1 1 1 1 1 1 1 1 1 0 0 0 -0
7 7 7 7 7 7 7 7 7 7 7 6 6 6 5 5 4 3 3 2 2 1 1 1 1 1 1 1 1 1 1 1 1 1 1 1 1 0 0 0 -0 -0 -1
6 6 6 6 6 6 6 6 6 6 6 5 5 5 4 4 3 3 2 2 1 1 1 1 1 1 1 1 1 1 1 1 1 1 0 0 0 0 0 -0 -0 -1 -1
6 6 6 6 6 6 6 6 6 5 5 5 4 4 3 3 3 2 2 1 1 1 1 1 1 1 1 1 1 0 0 0 0 0 0 -0 -0 -0 -0 -0 -1 -1 -1
5 5 5 5 5 5 5 5 5 5 4 4 4 3 3 2 2 2 2 1 1 1 1 1 1 1 1 1 0 0 0 -0 -0 -1 -0 -0 -0 -0 -0 -1 -1 -1 -1
5 5 5 5 5 5 5 5 4 4 4 3 3 3 2 2 2 2 1 1 1 1 0 0 0 0 0 -0 -0 -0 -0 -1 -1 -1 -0 -0 -0 -0 -1 -1 -1 -1 -2
Wind_Speed
8 9 9 8 7 6 7 8 8 7 6 5 5 4 4 3 3 3 4 3 1 1 0 1 2 2 2 3 3 3 4 3 2 2 4 6 8 9 7 3 1 1 1
6 8 9 8 7 7 7 7 7 7 6 5 4 4 3 3 3 3 4 4 2 2 1 1 1 2 2 3 4 3 2 3 2 2 3 4 5 4 3 2 2 1 2
9 10 10 9 8 7 7 6 7 6 6 6 4 4 3 3 2 3 3 3 4 4 4 3 3 2 1 2 3 3 3 3 3 3 3 3 3 4 3 1 1 2 2
10 10 10 10 9 7 6 5 6 6 5 6 6 6 5 4 4 3 4 4 5 5 5 5 4 3 2 2 3 3 3 3 3 3 4 4 3 2 3 3 1 1 2
10 10 11 10 9 8 6 6 5 5 5 5 6 6 4 4 4 4 5 4 5 6 5 5 5 4 3 3 4 4 4 3 3 3 3 3 3 4 4 4 3 1 2
9 9 8 10 8 8 7 6 6 5 5 5 5 5 6 6 6 5 4 3 3 4 5 5 4 4 3 3 4 4 4 3 4 3 2 2 2 2 2 3 2 1 1
6 7 8 9 9 9 8 7 8 6 6 5 5 5 6 6 6 5 4 3 3 3 4 4 3 3 4 4 4 3 3 3 3 3 2 2 2 2 2 2 2 1 0
4 6 8 9 9 9 9 8 8 7 7 6 6 6 6 5 5 5 5 4 4 4 4 3 3 3 4 4 3 2 2 2 3 3 3 2 3 3 2 1 1 1 1
2 4 6 8 9 10 9 9 9 8 8 7 7 7 6 6 6 6 5 5 5 4 4 3 2 3 3 3 3 2 2 2 3 3 3 3 3 3 3 3 2 1 2
2 3 4 7 8 9 8 8 9 8 8 8 7 6 7 7 6 6 5 5 5 4 3 2 3 3 3 3 2 2 2 3 3 2 3 3 3 3 3 3 3 2 0
3 3 4 6 7 8 8 7 8 9 8 8 8 8 7 6 6 5 5 5 4 4 3 3 3 3 3 2 2 2 2 3 3 3 4 4 4 3 3 3 3 3 2
2 3 5 6 7 7 7 7 8 8 8 8 8 8 7 6 6 6 5 4 4 4 3 3 3 3 3 3 2 3 3 4 4 4 4 4 4 5 4 4 4 3 3
4 4 4 6 7 7 8 8 8 8 8 8 8 8 7 6 6 6 5 4 4 4 3 3 3 3 2 3 3 3 4 5 5 5 5 5 5 5 4 4 4 3 3
6 6 6 7 7 8 8 8 8 8 8 8 8 8 8 7 7 6 6 5 4 3 3 3 4 3 3 3 3 4 5 6 6 6 6 6 5 5 4 4 4 4 3
4 5 6 7 8 8 9 9 8 9 9 8 8 8 8 7 7 6 6 5 4 3 3 4 4 3 3 3 3 3 5 5 5 5 6 6 6 7 5 4 4 4 3
4 5 6 7 8 9 9 9 9 9 9 9 8 8 8 8 7 7 6 5 4 4 3 4 4 3 3 4 4 5 5 5 5 4 3 3 4 5 6 6 6 6 4
5 4 5 6 7 9 10 11 10 9 10 9 8 9 9 8 8 7 6 6 5 4 4 4 4 5 5 6 5 6 5 4 3 3 2 2 3 3 2 3 5 5 6
6 5 4 4 6 7 8 10 10 11 10 9 9 10 9 9 8 7 7 6 5 5 4 4 4 5 5 6 6 6 5 4 3 2 2 2 1 2 2 2 3 2 2
6 5 4 3 3 5 8 9 10 10 10 10 10 10 10 10 9 9 7 6 5 4 4 4 4 5 5 7 7 6 3 3 3 3 2 2 1 1 1 1 1 1 0
6 6 6 4 1 2 6 8 9 10 10 10 10 10 10 10 10 9 7 5 5 5 5 5 5 5 5 8 8 7 3 3 3 3 3 3 2 2 1 0 0 1 0
5 6 6 5 4 3 4 6 7 8 7 8 8 9 9 9 9 8 7 7 6 6 6 6 5 6 7 9 10 9 3 3 3 3 3 3 4 3 3 2 1 2 1
4 5 4 4 5 4 3 3 4 4 6 7 8 8 8 8 8 8 8 8 8 7 6 6 6 5 6 8 9 11 9 6 3 3 3 4 5 5 4 3 4 4 2
3 3 2 2 2 2 2 2 3 5 6 7 7 8 8 7 8 8 9 8 8 7 6 6 6 5 5 7 13 13 12 11 5 4 6 6 6 5 4 6 7 4 2
1 1 1 1 0 1 1 2 3 5 6 7 7 7 8 8 8 7 7 8 8 8 7 7 7 5 5 6 6 6 7 10 7 5 6 8 8 7 6 6 5 4 4
2 2 2 1 0 1 1 2 4 5 6 6 6 7 7 7 7 8 8 9 8 9 9 7 7 7 7 9 13 9 7 6 6 5 3 3 3 4 4 5 5 5 4
2 2 2 2 1 1 2 2 4 5 6 5 6 6 6 6 6 6 6 10 10 13 14 11 9 8 10 10 14 15 15 14 13 8 4 6 6 6 6 6 5 5 6
Wind_Direction
168 152 153 160 163 173 175 173 173 177 166 160 162 163 169 163 151 131 122 126 125 128 150 321 305 308 281 274 276 273 273 269 270 295 294 277 260 254 246 230 216 309 13
186 157 155 163 172 179 182 173 170 173 166 159 156 150 146 141 133 117 112 103 87 59 58 17 327 325 313 305 299 296 280 272 240 228 283 302 305 290 253 174 144 92 52
200 175 169 169 173 178 177 173 165 161 155 147 132 118 104 99 128 138 124 93 80 60 47 27 4 350 340 304 306 309 289 277 270 228 229 258 278 331 336 6 92 80 59
210 184 173 170 169 161 147 145 142 142 143 142 146 154 159 165 165 149 136 118 95 70 48 28 10 358 348 328 318 322 308 289 278 277 245 235 242 262 300 322 358 43 57
208 191 177 169 158 145 140 140 138 141 144 145 151 157 150 141 124 114 123 122 107 90 65 37 17 8 4 354 346 336 325 304 281 277 281 275 266 239 237 267 288 350 37
197 182 167 149 143 138 142 148 151 150 144 142 144 145 142 136 132 134 138 131 124 109 86 51 23 16 18 5 354 340 334 331 316 303 295 283 275 269 250 253 261 269 342
181 168 157 152 149 149 155 159 156 156 150 139 130 123 123 126 132 133 128 120 115 105 84 60 31 27 19 7 355 338 336 342 334 332 332 342 344 340 319 284 282 291 265
179 172 163 158 156 158 162 165 161 156 147 136 123 110 106 104 102 93 93 92 92 92 79 59 39 38 23 9 358 347 350 357 353 359 7 10 19 16 10 350 327 293 275
168 153 150 154 156 161 168 170 160 151 145 137 127 118 109 102 102 96 88 85 83 84 73 61 54 51 35 12 3 16 13 31 32 25 32 40 35 29 19 12 13 242 248
129 137 143 148 156 160 163 160 150 147 141 135 129 120 111 106 108 106 103 99 95 87 76 66 63 57 40 20 30 32 36 68 58 46 59 53 40 37 29 22 23 28 333
116 139 137 140 141 144 149 151 147 143 142 135 125 123 118 117 117 113 108 107 105 98 84 73 66 58 37 28 52 59 61 83 74 62 73 66 55 51 34 31 38 39 33
111 132 139 138 143 150 154 154 151 148 145 139 136 131 127 131 130 122 114 109 109 101 89 81 78 71 48 35 58 71 67 81 82 72 75 70 67 56 40 40 43 37 29
155 157 157 163 164 164 164 161 158 153 147 143 141 137 141 145 137 128 123 115 110 110 108 104 100 93 76 60 63 79 80 78 75 71 73 69 71 62 47 44 38 23 28
172 181 181 182 179 175 171 167 162 153 149 147 149 150 152 146 135 129 127 123 121 123 119 107 104 101 93 85 81 92 93 87 76 68 65 62 62 58 46 47 29 25 31
202 196 192 192 184 179 175 169 163 156 154 155 157 155 145 134 129 131 132 129 127 121 118 119 115 110 107 100 97 102 106 104 94 80 76 73 73 67 59 58 38 35 41
265 218 201 199 191 183 177 170 166 162 160 163 162 150 142 140 143 145 147 147 144 137 133 131 130 130 118 119 120 110 101 104 105 98 91 97 77 72 67 64 59 58 64
293 258 220 210 200 188 178 175 170 160 164 166 160 155 153 154 155 156 155 158 158 154 155 152 148 131 131 141 131 123 115 115 118 122 118 104 101 77 50 53 57 55 61
317 296 258 226 205 184 173 167 160 163 168 169 165 163 161 160 158 160 166 166 159 160 163 155 145 140 151 152 147 139 126 134 148 149 141 129 112 101 69 55 50 47 67
331 326 311 272 212 179 165 160 161 164 170 175 173 169 166 164 165 170 170 163 159 163 162 155 156 156 165 170 167 160 157 168 179 173 152 133 128 132 78 60 19 356 298
354 345 338 344 21 144 144 153 162 168 180 180 172 167 166 167 171 172 167 160 160 166 162 167 177 179 184 191 188 188 187 189 188 180 180 183 181 198 221 70 287 284 283
356 350 355 14 27 65 118 150 163 179 176 161 156 159 162 166 167 166 164 162 165 168 175 184 197 200 203 202 201 205 198 193 185 186 193 199 200 215 244 259 234 243 242
9 6 12 23 26 44 93 146 173 166 146 146 151 155 158 164 165 164 166 170 173 180 188 194 206 212 207 205 209 214 215 210 190 198 198 198 203 221 247 254 253 261 273
14 8 14 29 31 35 74 155 166 143 141 146 155 158 162 167 168 170 174 178 184 190 195 199 206 208 200 207 217 219 219 222 209 203 210 210 218 232 249 254 251 251 239
348 351 343 340 246 152 118 162 153 148 151 162 166 168 173 176 178 182 183 189 195 199 200 204 207 204 200 203 206 211 222 224 225 221 226 232 237 235 240 250 252 228 220
336 337 324 324 291 164 171 160 156 156 168 175 177 178 182 184 189 194 199 200 206 204 203 206 200 199 210 215 207 199 205 202 207 196 196 205 217 223 226 230 230 221 223
324 318 314 316 306 229 199 175 169 172 179 187 185 184 187 189 193 198 211 216 215 221 221 213 205 211 216 216 215 215 216 216 214 208 206 214 219 223 225 226 225 220 219
Height
1510 1512 1515 1517 1520 1523 1526 1528 1530 1533 1536 1538 1541 1543 1545 1547 1549 1550 1552 1553 1553 1554 1555 1555 1555 1556 1555 1555 1555 1555 1554 1553 1552 1551 1549 1547 1547 1546 1545 1545 1545 1545 1544
1507 1509 1512 1515 1517 1520 1523 1525 1528 1530 1532 1535 1538 1540 1542 1544 1546 1547 1549 1550 1550 1551 1551 1552 1552 1552 1551 1551 1551 1550 1549 1549 1549 1548 1546 1543 1542 1541 1541 1541 1541 1541 1541
1504 1506 1509 1511 1514 1517 1519 1522 1525 1527 1530 1532 1535 1537 1539 1541 1543 1544 1545 1546 1547 1547 1547 1548 1548 1547 1547 1547 1546 1546 1545 1544 1544 1544 1544 1542 1540 1539 1539 1539 1539 1538 1538
1500 1502 1505 1507 1510 1513 1516 1518 1521 1524 1526 1529 1531 1533 1535 1537 1539 1540 1541 1542 1542 1543 1543 1543 1543 1543 1542 1542 1541 1541 1540 1539 1539 1539 1539 1539 1538 1537 1535 1535 1535 1535 1535
1495 1498 1500 1503 1506 1509 1512 1515 1517 1520 1523 1525 1527 1530 1531 1533 1535 1536 1537 1537 1538 1538 1539 1539 1538 1538 1537 1537 1536 1535 1535 1534 1534 1534 1534 1533 1533 1533 1533 1531 1531 1532 1531
1490 1494 1497 1499 1502 1505 1508 1511 1513 1516 1519 1521 1524 1526 1528 1529 1531 1532 1533 1533 1533 1534 1534 1534 1533 1533 1532 1532 1531 1530 1530 1529 1529 1529 1529 1529 1529 1528 1528 1527 1527 1527 1527
1486 1489 1492 1495 1497 1500 1503 1506 1509 1512 1515 1517 1520 1522 1524 1525 1527 1528 1529 1529 1529 1529 1529 1529 1529 1528 1527 1527 1526 1525 1525 1524 1524 1524 1524 1524 1524 1524 1524 1523 1523 1523 1523
1483 1485 1488 1491 1493 1496 1499 1502 1505 1508 1510 1513 1515 1518 1520 1521 1522 1524 1524 1525 1525 1525 1525 1524 1524 1523 1522 1522 1521 1520 1519 1519 1519 1519 1518 1518 1518 1518 1519 1519 1519 1518 1519
1481 1483 1485 1487 1490 1492 1495 1498 1501 1503 1506 1509 1511 1513 1515 1517 1518 1519 1520 1520 1521 1521 1520 1520 1519 1518 1518 1517 1516 1516 1515 1514 1514 1514 1513 1513 1513 1513 1513 1514 1514 1515 1515
1480 1482 1483 1485 1487 1489 1492 1494 1497 1500 1502 1505 1507 1509 1511 1513 1514 1515 1516 1516 1516 1516 1516 1515 1515 1514 1513 1513 1512 1511 1510 1510 1510 1509 1509 1509 1509 1509 1509 1509 1509 1510 1511
1479 1480 1482 1483 1485 1487 1489 1491 1493 1496 1499 1501 1503 1506 1508 1509 1510 1511 1512 1512 1512 1512 1512 1511 1511 1510 1509 1509 1508 1507 1507 1506 1506 1505 1505 1505 1505 1505 1505 1505 1505 1506 1507
1478 1479 1480 1481 1482 1483 1485 1488 1490 1493 1495 1498 1500 1502 1504 1505 1506 1507 1508 1508 1508 1508 1507 1507 1506 1506 1505 1505 1504 1503 1503 1503 1503 1502 1502 1502 1502 1502 1502 1502 1502 1502 1503
1477 1477 1478 1479 1479 1481 1482 1484 1487 1489 1492 1494 1497 1499 1501 1502 1503 1503 1504 1504 1504 1503 1503 1503 1502 1502 1501 1501 1500 1500 1500 1500 1500 1499 1500 1500 1500 1499 1499 1499 1499 1500 1500
1475 1475 1476 1477 1477 1478 1480 1481 1484 1486 1489 1491 1493 1495 1497 1498 1499 1499 1500 1500 1500 1499 1499 1499 1498 1498 1498 1498 1497 1497 1497 1497 1497 1497 1497 1497 1498 1497 1497 1497 1497 1497 1497
1473 1473 1473 1474 1474 1475 1477 1479 1481 1483 1486 1488 1490 1492 1493 1494 1495 1496 1496 1496 1496 1496 1495 1495 1495 1495 1495 1495 1495 1495 1495 1495 1495 1495 1495 1496 1496 1496 1496 1496 1496 1495 1495
1471 1470 1470 1471 1472 1472 1474 1475 1478 1480 1483 1485 1487 1488 1489 1491 1491 1492 1492 1492 1492 1492 1492 1492 1492 1492 1492 1492 1492 1493 1493 1493 1494 1494 1494 1494 1494 1494 1494 1494 1494 1493 1493
1468 1468 1467 1468 1468 1469 1470 1472 1474 1477 1479 1481 1483 1484 1485 1487 1487 1488 1488 1489 1489 1489 1489 1489 1489 1489 1490 1490 1490 1491 1491 1492 1492 1492 1492 1492 1492 1492 1492 1492 1492 1492 1491
1466 1465 1464 1464 1465 1466 1467 1469 1471 1473 1475 1477 1479 1480 1481 1482 1483 1484 1484 1485 1485 1485 1486 1486 1486 1487 1488 1488 1488 1489 1490 1490 1490 1490 1490 1491 1491 1491 1491 1490 1490 1490 1490
1463 1462 1461 1461 1461 1462 1463 1465 1467 1469 1471 1472 1474 1476 1477 1478 1479 1480 1481 1481 1482 1482 1483 1483 1484 1485 1485 1486 1487 1487 1488 1488 1488 1489 1489 1489 1489 1489 1489 1489 1488 1488 1488
1460 1459 1458 1458 1458 1459 1460 1461 1463 1464 1466 1468 1470 1471 1473 1474 1475 1476 1477 1477 1478 1479 1479 1480 1481 1482 1483 1484 1484 1485 1485 1486 1486 1486 1487 1487 1487 1487 1487 1487 1486 1486 1486
1458 1457 1456 1455 1456 1456 1457 1458 1459 1461 1463 1464 1465 1467 1468 1470 1471 1472 1473 1474 1474 1475 1476 1477 1478 1479 1480 1481 1482 1482 1483 1483 1484 1484 1484 1485 1485 1485 1485 1485 1484 1484 1484
1457 1456 1455 1454 1454 1454 1454 1455 1456 1457 1459 1460 1461 1462 1464 1465 1466 1467 1468 1469 1470 1471 1472 1474 1475 1476 1477 1478 1479 1480 1480 1481 1481 1482 1482 1482 1482 1482 1482 1482 1482 1482 1481
1457 1455 1454 1453 1452 1452 1452 1452 1453 1454 1455 1456 1457 1458 1460 1461 1462 1463 1464 1465 1466 1467 1468 1470 1471 1472 1474 1475 1476 1476 1477 1478 1478 1479 1479 1479 1479 1479 1479 1479 1479 1479 1478
1456 1454 1453 1452 1451 1450 1450 1450 1451 1451 1452 1453 1454 1454 1455 1456 1458 1459 1460 1461 1462 1463 1464 1465 1467 1468 1470 1471 1472 1473 1473 1474 1475 1475 1475 1476 1476 1476 1476 1476 1476 1475 1475
1454 1453 1452 1451 1450 1449 1448 1448 1448 1448 1449 1449 1450 1451 1452 1453 1453 1455 1456 1457 1458 1459 1461 1462 1463 1464 1465 1467 1468 1469 1469 1470 1471 1471 1471 1471 1472 1472 1472 1472 1472 1471 1471
1452 1451 1450 1449 1448 1447 1446 1446 1446 1446 1446 1446 1447 1447 1448 1449 1450 1450 1451 1452 1454 1455 1456 1457 1458 1459 1461 1463 1463 1464 1465 1465 1466 1466 1466 1466 1467 1467 1467 1467 1467 1467 1466